Location: Copeville
(33.0796°N, 96.4155°W)
Time: 08:12:44
(UTC+00:00)

ADEOS - Pass Details

Date: 08 December 2021
Orbit: 792 x 795 km, 98.9° (Epoch: 17 January)

Event Time Altitude Azimuth Distance (km) Brightness Sun altitude
Rises 12:35:15 0° 2° (N) 3,299 6.6 -8.7°
Reaches altitude 10° 12:37:45 10° 353° (N) 2,365 5.8 -8.3°
Maximum altitude 12:42:25 35° 290° (WNW) 1,268 4.1 -7.4°
Drops below altitude 10° 12:47:05 10° 226° (SW) 2,352 5.8 -6.5°
Sets 12:49:34 0° 217° (SW) 3,277 6.6 -6.0°
